CAPE
164 257 432 1272 1520 1464 1124 803 743 817 1154 1169 975 820 1215 1680 1836 1845 1861 1725 1851 1670 1463 1397 1806 1778 1640 1528 1859 1841 1751 1747 1771 2042 2171 2091 2047 2141 2182 2130 2035 2041 2036
270 494 798 1416 1630 1544 1289 1048 962 1016 1142 1195 1216 1303 1639 1861 2046 1917 1815 1734 1761 1531 1814 1791 1868 1866 1909 1887 1997 2163 2000 1949 1699 1901 1992 1998 1982 2025 2019 1726 1583 1493 2093
498 858 1063 1345 1495 1674 1627 1448 1313 1499 1614 1591 1578 1544 1682 1725 1919 1788 1826 2025 1873 1845 1515 1779 1709 1588 1662 1619 1851 1990 1959 1957 1785 1751 1558 1791 1723 1718 1951 1855 1722 1694 1725
713 1049 1294 1315 1474 1857 1767 1770 1612 1497 1715 1750 1722 1700 1725 1894 1971 2055 2183 2001 1953 1764 1740 1728 1783 1865 1759 1844 1661 1248 1346 1531 1654 1354 1434 1441 1832 1782 1745 1746 1936 2023 1880
769 1030 1519 1468 1460 1745 1869 1873 1897 1670 1639 1699 1751 1930 1972 2045 1980 1995 1859 2065 1865 1574 1511 1962 1809 1796 1504 1642 1494 1324 1243 1131 1524 1028 1248 1535 1589 1877 1870 1779 1929 1877 1887
845 1116 1644 1339 1227 1290 1695 1860 1804 1821 1820 1768 1699 1652 1918 1938 1912 2120 1583 1456 1805 1538 1733 1883 1904 2010 1618 1518 1354 1226 1348 1064 761 588 623 1152 1446 2234 2171 1975 1806 2019 2021
913 1413 1580 1395 1097 1090 1315 1650 1628 1674 1789 1825 1739 1773 1915 1853 1946 2084 1462 940 1790 1918 1911 1888 1890 1717 1507 1397 1206 1171 1146 868 612 212 468 430 586 1303 1399 1645 1510 1555 1541
1158 1540 1360 1253 1107 1436 1744 1815 1666 1665 1756 1834 1725 1781 2228 1782 1825 1951 1461 1103 954 1280 1636 1892 1301 940 1024 1027 1251 905 716 356 630 356 469 436 391 1196 1510 1388 1594 1897 1991
904 1236 1142 1092 1055 1307 1774 1959 1744 1728 1611 1452 2051 1797 1689 1664 1651 1768 1759 1516 1060 735 1130 1380 1090 1302 1438 1613 1530 1234 1281 419 136 373 526 526 594 991 1753 1525 1819 2022 1916
531 937 712 1401 1886 1910 1878 1974 1828 1669 1519 1910 1682 1869 1731 1574 1687 1800 1721 1650 1833 1942 1550 1349 1297 1665 1488 1203 1112 1122 1567 544 164 199 182 411 567 711 1140 2019 2132 1864 1759
332 981 1249 1547 1662 1481 1590 1532 1638 1463 1383 1826 1277 1297 1225 557 464 719 991 1386 1347 1192 1260 1222 1264 1089 805 843 1027 1383 1694 478 58 125 148 258 624 610 1007 1435 1555 1590 1764
115 533 1241 1351 1405 1392 1698 1408 1398 1046 1079 1323 868 624 153 48 17 14 223 891 882 843 1061 1065 898 885 933 632 463 797 615 173 151 88 94 149 439 533 979 1297 1615 1557 1795
187 564 1098 1102 1290 1241 1387 1110 1220 1264 1190 987 221 106 34 1 0 0 13 79 93 202 169 221 293 358 366 326 434 624 565 329 310 302 149 127 221 317 792 985 1132 1656 1601
243 157 618 818 953 890 742 607 990 939 887 834 301 81 39 2 0 0 0 9 19 13 10 0 0 0 0 0 105 419 509 569 501 355 95 74 408 676 769 902 1030 1137 1656
263 331 371 618 806 536 275 262 221 213 317 426 281 72 10 0 0 0 0 0 0 0 0 0 0 0 0 30 149 268 344 338 358 309 206 93 508 848 1026 1419 1254 1056 1347
355 467 459 480 352 639 438 286 206 338 289 263 258 125 39 0 0 0 0 0 0 0 0 0 0 5 70 120 98 205 279 367 323 277 232 199 419 680 862 1090 967 1064 1204
220 335 483 530 515 506 410 374 280 110 165 186 165 93 61 37 3 0 0 0 0 0 0 14 86 101 112 127 171 135 165 262 330 351 337 343 376 600 760 698 580 888 1231
48 246 308 481 545 566 476 382 320 93 28 19 4 4 23 70 27 0 0 6 0 4 56 112 122 103 122 152 165 122 131 119 148 210 285 314 353 385 447 502 739 703 1034
49 62 190 307 423 499 503 438 261 143 37 14 4 7 35 73 94 38 0 1 1 5 37 60 81 140 146 166 172 174 161 134 94 140 141 221 227 329 285 286 508 795 777
242 168 168 227 263 354 383 340 325 264 203 117 72 62 62 67 100 119 71 33 33 32 48 54 95 134 174 168 176 219 195 151 145 180 127 96 80 175 280 261 432 670 927
249 185 209 207 228 266 290 235 232 251 273 222 168 171 229 161 102 103 107 127 89 84 88 53 43 94 177 179 164 220 168 130 125 127 178 135 48 94 194 333 516 663 814
360 185 199 213 225 293 298 262 263 289 301 254 360 415 416 238 334 240 207 208 130 109 100 157 215 182 156 129 225 156 56 55 21 46 70 97 98 93 164 269 320 477 705
404 257 249 233 234 243 349 418 454 481 556 648 679 640 744 571 527 520 524 368 235 193 273 323 369 365 371 208 193 175 42 47 30 66 107 78 31 26 70 119 195 245 314
313 314 328 242 191 196 251 372 450 513 574 648 922 1320 1333 1146 812 658 505 468 423 258 339 398 460 519 397 403 137 166 115 20 30 57 79 62 79 119 184 101 112 234 316
372 336 249 320 335 330 246 275 355 514 684 941 1702 1692 1389 939 736 910 920 907 839 763 464 348 412 528 491 434 321 264 190 95 54 57 55 77 14 67 196 180 214 239 323
551 354 391 630 505 709 321 464 628 927 1151 1989 1501 1351 1082 961 794 885 915 1054 885 735 661 495 433 576 492 354 362 363 244 238 232 133 116 90 48 78 195 299 342 354 348
CIN
-8 -6 -4 -1 0 0 -13 -31 -35 -31 -19 -22 -32 -28 -5 0 0 0 0 0 0 0 -6 -5 0 -3 -5 -10 -3 -1 0 0 0 0 0 0 0 0 0 0 -1 0 0
-38 -2 -2 -1 0 0 -15 -23 -27 -23 -16 -19 -19 -11 0 0 0 0 0 0 0 -3 0 0 0 0 0 0 0 0 0 0 0 0 0 0 0 0 0 0 -2 -6 0
-28 -2 -7 -2 0 0 0 -5 -10 -4 -2 -4 -4 -8 0 0 -2 -7 0 0 0 0 0 0 0 0 0 0 0 0 0 0 0 0 -4 -3 -1 -2 0 -1 -1 -3 -1
-30 -3 -2 -3 -1 0 0 0 -1 -2 0 -2 -3 -3 0 0 -7 0 0 0 0 0 0 0 0 0 0 0 0 -9 -4 0 -2 -12 -12 -10 0 -1 0 -1 0 0 0
-35 -14 0 0 0 0 0 0 0 0 0 0 0 0 0 0 0 0 0 0 0 0 0 0 0 0 0 0 0 -3 -7 -15 -9 -31 -21 -10 -2 0 0 -1 0 0 0
-26 -13 0 0 -2 -3 0 0 0 -1 -1 -3 -5 -14 0 0 0 0 0 0 0 0 0 0 0 0 0 -2 -6 -18 -17 -30 -51 -80 -78 -29 -5 0 0 0 0 0 0
-23 -1 0 0 -6 -13 -5 -2 -9 -10 -9 -3 -5 -9 -1 0 0 0 -2 -17 0 0 0 0 0 0 -1 -4 -8 -13 -27 -56 -78 -116 -95 -102 -74 -12 -5 -1 -2 -1 0
-20 -1 -1 -3 -11 -1 0 -1 -5 -8 -6 0 -6 -4 0 -1 0 0 -2 -12 -9 -1 0 0 -3 -10 -8 -6 -6 -23 -41 -86 -85 -110 -91 -102 -98 -19 -1 -4 -5 -2 0
-36 -8 -8 -13 -19 -9 0 0 0 0 -1 -8 0 0 -5 -4 0 0 0 -1 -4 -14 -1 0 -3 -1 0 0 -1 -5 -20 -72 -133 -95 -75 -102 -80 -39 -3 -3 -4 0 -2
-86 -37 -54 -2 -1 -1 -1 0 0 0 -4 0 0 0 0 0 0 0 0 0 0 0 0 0 0 0 -2 -7 -12 -16 -18 -78 -114 -100 -101 -80 -80 -57 -22 0 0 0 -1
-138 -29 -19 -10 -3 -15 -9 -5 0 0 0 0 0 0 -8 -30 -23 -19 -10 -1 0 0 0 -3 -2 -8 -20 -21 -19 -8 -8 -87 -102 -85 -106 -71 -43 -47 -20 -3 -1 0 0
-241 -112 -14 -12 -6 -4 -1 -2 -2 -8 -5 -3 -11 -19 -57 -93 -103 -80 -28 -5 -1 0 0 0 -7 -13 -15 -33 -45 -30 -53 -92 -78 -76 -93 -80 -58 -41 -14 -4 0 -3 0
-202 -102 -31 -21 -9 -5 -2 -11 -4 -4 -5 -5 -44 -65 -113 -133 0 0 -68 -25 -31 -27 -47 -43 -44 -51 -50 -59 -50 -52 -55 -64 -55 -67 -78 -83 -65 -61 -19 -10 -3 0 0
-198 -206 -84 -59 -31 -40 -43 -37 -24 -16 -15 -7 -31 -77 -126 -133 0 0 0 -75 -55 -64 -82 0 0 0 0 0 -96 -57 -64 -63 -73 -84 -109 -103 -56 -50 -41 -33 -16 -6 0
-155 -154 -147 -94 -61 -61 -38 -42 -53 -43 -60 -53 -52 -98 -202 0 0 0 0 0 0 0 0 0 0 0 0 -90 -70 -60 -58 -72 -83 -101 -109 -104 -65 -48 -41 -17 -17 -16 -1
-132 -136 -142 -120 -131 -86 -63 -72 -77 -73 -80 -75 -69 -84 -130 0 0 0 0 0 0 0 0 0 0 -88 -70 -69 -73 -51 -53 -57 -77 -99 -102 -91 -57 -42 -35 -25 -17 -14 -1
-162 -145 -141 -152 -151 -133 -115 -84 -89 -134 -119 -94 -90 -96 -110 -127 -165 0 0 0 0 0 -108 -86 -46 -55 -57 -53 -52 -57 -48 -49 -56 -81 -87 -83 -72 -46 -30 -22 -17 -13 -8
-210 -192 -185 -156 -164 -151 -138 -135 -133 -184 -242 -188 -148 -167 -186 -132 -133 0 0 -182 -53 -76 -34 -26 -25 -27 -34 -33 -38 -55 -60 -65 -71 -84 -90 -81 -82 -77 -70 -34 -28 -27 -17
-264 -261 -203 -202 -174 -164 -177 -172 -176 -184 -261 -290 -179 -228 -141 -124 -131 -125 0 -39 -111 -97 -65 -42 -26 -12 -25 -24 -29 -40 -54 -92 -112 -103 -125 -105 -100 -93 -86 -67 -43 -27 -23
-221 -228 -210 -189 -196 -211 -224 -236 -222 -199 -184 -191 -163 -122 -130 -150 -136 -132 -134 -132 -107 -93 -69 -57 -30 -25 -30 -41 -35 -33 -74 -97 -122 -128 -144 -137 -131 -107 -91 -89 -75 -50 -33
-241 -248 -220 -202 -198 -222 -238 -233 -228 -182 -167 -143 -110 -66 -111 -103 -114 -133 -164 -159 -155 -95 -91 -97 -95 -66 -45 -43 -27 -57 -91 -119 -134 -152 -135 -136 -134 -113 -85 -82 -83 -76 -53
-195 -251 -245 -224 -240 -231 -225 -235 -218 -197 -175 -116 -80 -72 -79 -29 -59 -89 -124 -139 -180 -155 -129 -87 -40 -45 -48 -58 -26 -49 -103 -129 -192 -161 -147 -132 -114 -103 -82 -83 -83 -81 -79
-177 -207 -209 -205 -224 -256 -249 -226 -217 -197 -141 -81 -79 -76 -57 -66 -72 -65 -83 -110 -149 -131 -106 -73 -39 -32 -20 -55 -50 -41 -94 -98 -112 -125 -126 -155 -181 -177 -126 -94 -90 -97 -102
-183 -232 -268 -248 -247 -273 -260 -231 -174 -124 -88 -59 -41 -36 -36 -51 -75 -89 -102 -103 -94 -102 -101 -84 -54 -33 -36 -19 -60 -76 -102 -125 -58 -63 -110 -119 -126 -115 -85 -108 -106 -109 -114
-212 -211 -219 -209 -195 -232 -225 -198 -186 -153 -97 -53 -26 -19 -17 -39 -55 -54 -67 -62 -58 -66 -86 -84 -63 -46 -49 -47 -39 -32 -43 -70 -86 -61 -83 -78 -122 -101 -80 -82 -107 -126 -144
-199 -247 -303 -237 -263 -186 -142 -56 -103 -87 -57 -10 -36 -37 -38 -37 -50 -48 -51 -51 -62 -64 -53 -55 -60 -56 -50 -64 -52 -43 -45 -50 -43 -39 -65 -75 -90 -111 -81 -89 -103 -104 -113
Wind_Speed
17 14 22 28 25 24 24 24 24 24 24 26 25 25 24 24 25 25 25 24 21 18 15 11 10 12 17 15 13 16 17 15 12 10 8 5 5 6 5 5 6 7 7
21 22 28 23 22 20 21 22 21 21 23 23 24 24 24 22 24 23 24 24 21 17 17 16 17 17 16 15 15 15 12 15 16 12 9 7 6 6 6 7 7 7 7
18 18 18 17 20 19 19 19 21 22 23 22 23 24 23 22 21 21 22 24 21 18 20 19 18 18 18 17 16 14 7 6 6 8 8 5 7 8 8 8 7 7 8
19 18 16 24 21 18 17 18 19 21 22 23 24 24 23 21 20 20 22 22 21 15 16 17 16 16 16 16 15 13 9 6 6 7 6 7 7 7 9 9 8 8 8
16 15 16 20 19 17 18 16 17 19 22 23 23 22 22 22 19 19 19 20 18 15 14 14 15 15 16 16 15 14 12 12 12 9 8 8 10 8 8 9 10 10 9
15 17 18 17 17 16 15 14 16 17 19 20 21 21 20 21 20 19 17 17 17 18 13 12 13 14 15 15 13 12 13 12 11 11 9 10 10 11 10 12 14 13 12
17 15 16 16 16 16 16 14 16 15 17 18 18 18 18 18 18 17 15 15 16 15 14 13 12 12 13 13 12 12 13 13 10 10 11 11 12 14 16 16 17 16 16
20 17 16 17 17 15 16 14 14 15 16 16 16 16 15 18 16 16 15 14 15 14 14 13 12 11 10 11 11 13 14 14 13 13 12 14 15 16 16 18 20 19 19
22 20 18 17 16 16 15 15 14 14 14 15 15 15 13 13 13 13 14 15 15 16 14 13 13 11 10 10 11 13 13 14 13 12 9 15 17 19 19 19 20 19 20
23 23 20 19 16 12 11 12 13 13 14 14 13 13 13 12 12 11 13 15 14 15 14 13 14 14 15 14 12 12 12 13 14 12 13 13 21 23 22 22 22 22 22
24 23 21 18 15 13 12 11 12 13 13 11 11 12 13 14 16 16 16 14 14 14 13 12 13 14 14 13 13 12 11 13 15 16 18 17 14 25 26 25 25 24 24
23 22 20 18 16 14 11 10 9 10 10 12 12 13 15 16 15 13 11 12 13 14 13 12 12 13 15 12 12 14 13 12 10 9 16 25 25 24 29 28 27 25 25
21 20 19 16 13 11 8 7 11 10 12 14 19 20 16 14 13 12 13 9 10 11 12 11 9 12 12 14 15 14 14 13 16 13 15 7 20 28 30 29 27 25 25
21 20 19 16 13 13 11 9 18 19 16 19 20 19 15 12 11 11 9 11 10 11 13 14 10 14 23 20 16 15 18 17 16 16 15 15 17 24 28 29 27 25 25
22 20 19 17 17 16 15 21 26 19 19 18 19 17 14 12 11 9 12 12 11 13 16 18 20 27 25 26 22 17 18 18 18 19 18 17 19 23 24 25 25 24 26
22 21 19 19 20 18 18 21 22 20 19 18 17 16 13 13 12 10 10 10 11 13 16 19 17 10 26 27 25 24 22 21 21 21 21 20 21 22 23 25 20 21 26
22 21 20 19 19 19 19 21 20 18 16 15 14 15 15 14 14 12 11 11 9 7 10 10 15 15 23 28 26 28 26 23 22 23 22 22 22 23 23 23 24 22 23
21 21 19 18 18 18 18 19 18 18 16 15 14 15 15 15 15 15 16 14 13 14 12 14 18 25 17 21 28 28 27 28 27 26 25 23 23 23 24 26 23 21 22
20 19 18 18 17 18 18 17 18 18 18 16 16 17 17 17 16 15 15 15 14 15 14 15 17 15 16 16 25 29 27 28 29 30 27 25 27 26 26 26 26 23 22
18 17 17 17 17 17 16 16 17 17 19 19 20 21 19 19 19 17 16 16 15 13 14 13 14 12 14 15 19 29 27 27 29 31 31 31 29 28 27 26 26 26 22
15 16 17 17 18 16 14 15 15 14 14 20 26 21 15 20 17 19 18 15 13 14 13 12 11 11 12 10 12 17 27 25 26 26 30 33 33 31 31 29 28 28 25
16 14 15 17 18 17 15 13 11 9 7 5 5 9 12 21 15 16 17 17 14 13 13 11 11 9 8 8 8 7 6 16 22 28 30 33 31 32 33 31 30 28 27
15 15 14 17 16 14 12 10 9 8 8 7 7 5 3 4 8 8 13 17 12 10 10 8 9 9 9 8 8 7 9 6 20 21 20 24 28 26 30 33 34 31 28
11 5 11 15 4 15 10 9 7 6 5 4 7 8 13 13 9 5 5 5 7 4 3 5 5 6 6 6 5 5 3 10 14 23 21 20 21 20 22 25 27 27 30
1 6 9 13 21 22 10 9 8 5 5 3 13 20 26 26 25 20 13 6 5 6 2 1 2 4 4 5 5 4 5 1 1 5 31 27 21 20 22 21 18 22 26
15 13 15 16 22 24 23 28 20 11 6 12 24 26 27 27 26 26 27 23 21 18 17 14 8 1 3 2 2 1 1 14 5 12 8 27 28 27 24 23 21 21 23
Wind_Direction
187 84 96 97 89 83 80 79 77 75 75 83 84 87 84 84 88 91 95 96 77 60 47 36 29 32 49 45 40 49 55 50 40 27 8 335 331 350 291 309 321 335 332
92 98 105 88 83 80 79 79 77 75 79 81 84 87 85 82 86 83 89 93 74 58 60 58 57 57 51 46 46 46 39 49 53 37 13 347 327 310 274 263 299 331 328
87 88 88 80 82 77 77 77 79 82 84 82 88 91 85 81 76 75 84 98 80 64 72 69 64 62 60 56 53 39 354 336 327 356 358 294 272 255 253 251 272 303 315
91 87 86 101 90 79 76 75 78 81 85 91 96 94 92 83 73 74 86 90 80 54 59 62 60 58 55 55 47 38 8 326 306 338 309 274 282 264 243 248 252 267 279
87 83 87 93 89 80 79 75 74 79 89 93 96 90 89 87 70 78 78 82 72 58 55 50 54 53 58 56 50 38 13 9 25 335 308 274 248 264 282 255 237 244 248
87 91 92 90 88 83 79 71 75 75 83 91 95 97 95 94 84 81 73 77 76 79 50 43 47 53 60 55 41 18 6 358 9 360 331 275 267 257 267 241 222 220 225
92 87 88 90 90 89 87 78 80 76 87 88 91 87 92 85 83 83 74 75 79 73 62 55 43 49 58 50 31 6 352 345 3 344 297 275 257 247 224 214 203 210 205
102 93 92 97 97 92 95 86 80 86 90 85 84 79 82 92 76 85 81 76 86 80 75 60 53 44 36 28 19 10 5 1 14 72 315 277 244 238 235 221 197 198 193
115 105 100 102 101 103 102 95 89 90 89 89 84 80 71 62 70 78 85 92 96 99 90 77 72 47 27 5 18 23 24 8 19 20 44 279 258 238 236 227 210 209 205
126 125 119 116 106 84 79 86 93 94 97 92 78 72 74 63 61 62 93 108 104 107 101 90 95 95 106 100 66 47 44 20 350 5 349 295 258 237 231 225 217 207 191
139 140 132 126 114 103 100 96 101 101 106 82 81 78 73 89 117 115 119 116 119 123 117 108 111 117 122 120 129 124 37 11 348 327 305 299 302 248 230 217 209 204 189
144 145 141 136 128 119 102 95 83 95 94 100 102 101 122 133 108 95 102 117 134 138 133 126 128 134 149 131 137 161 146 125 80 31 293 270 216 246 231 218 203 194 192
142 143 146 137 117 105 85 85 121 106 119 129 157 179 149 126 130 128 132 103 113 125 135 137 125 147 145 166 177 171 169 171 199 181 187 104 192 213 212 216 201 188 187
140 144 145 139 128 134 124 124 157 160 150 170 174 171 156 135 125 125 117 142 136 144 154 159 148 168 214 206 191 186 201 201 199 202 189 175 178 203 201 207 202 191 187
147 144 145 140 152 157 165 207 194 164 171 170 177 172 160 152 153 135 163 155 157 165 176 184 197 236 226 233 215 197 203 205 206 211 204 194 195 205 196 200 191 182 191
158 155 143 147 160 155 173 201 179 171 174 175 179 177 169 170 172 163 161 164 166 172 182 194 197 184 227 236 222 220 216 212 211 213 217 207 204 209 206 203 172 179 192
160 156 149 146 156 164 169 181 178 171 160 166 170 176 181 179 184 183 175 177 166 151 168 175 195 195 219 245 232 238 225 216 212 215 213 210 211 208 215 201 191 185 187
161 161 156 150 156 161 169 173 177 175 176 184 188 190 187 190 194 198 200 193 189 187 183 193 204 224 204 215 244 243 236 227 222 218 214 208 212 211 213 224 200 185 185
155 157 160 156 158 167 172 178 189 196 200 200 208 217 214 207 200 198 200 202 196 196 196 201 200 197 201 204 229 254 240 230 225 230 214 211 219 218 222 224 214 195 187
158 160 164 167 168 166 165 177 194 204 218 226 240 246 235 220 214 205 206 207 201 194 198 191 191 187 194 197 211 263 245 233 235 236 228 229 223 221 221 220 220 207 189
149 158 160 164 168 155 151 174 187 194 205 243 281 250 216 231 220 217 214 205 196 196 193 186 181 183 188 170 188 203 273 225 219 213 225 234 231 229 230 225 223 218 202
169 156 155 166 166 163 160 154 151 122 113 150 135 195 221 241 221 221 221 216 201 192 187 174 166 157 137 120 85 51 26 325 293 251 246 240 225 230 233 222 221 216 210
181 173 164 171 169 162 147 127 117 105 69 71 63 71 75 117 184 194 209 214 194 180 177 169 162 158 158 116 134 73 21 53 318 290 292 283 273 276 267 250 236 224 216
177 153 172 178 349 310 167 156 145 160 175 139 54 51 45 46 68 105 133 162 196 169 139 178 167 162 149 155 114 148 133 4 350 289 292 296 296 290 285 277 273 269 219
37 315 333 317 300 299 336 338 180 141 145 152 28 15 357 2 9 23 39 53 37 27 74 90 147 172 174 167 150 86 26 100 100 341 260 281 296 295 289 289 290 281 275
0 328 332 328 307 297 308 270 223 191 139 4 350 351 348 349 350 350 345 354 354 350 344 348 354 351 208 213 177 201 113 331 355 319 307 276 284 284 290 286 286 287 283